Location: Kosice
(48.7167°N, 21.2500°E)
Time: 02:08:18
(UTC+01:00)

ISS - Pass Details

Date: 24 January 2021
Orbit: 417 x 422 km, 51.6° (Epoch: 06 March)

Event Time Altitude Azimuth Distance (km) Brightness Sun altitude
Rises 17:08:03 0° 237° (WSW) 2,364 2.0 -8.0°
Reaches altitude 10° 17:10:09 10° 234° (SW) 1,503 0.5 -8.3°
Maximum altitude 17:13:29 61° 153° (SSE) 482 -3.5 -8.8°
Enters shadow 17:16:22 13° 74° (ENE) 1,322 -1.9 -9.3°
